Location: Arbon
(43.0005°N, 0.7472°E)
Time: 10:52:15
(UTC+00:00)

Cosmos 1943 - Pass Details

Date: 22 April 2026
Orbit: 832 x 847 km, 71.0° (Epoch: 15 May)

Event Time Altitude Azimuth Distance (km) Brightness Sun altitude
Exits shadow 22:04:50 13° 238° (WSW) 2,250 5.4 -29.1°
Maximum altitude 22:09:27 38° 303° (WNW) 1,265 4.4 -29.5°
Drops below altitude 10° 22:14:44 10° 11° (N) 2,472 6.2 -30.0°
Sets 22:17:22 0° 19° (NNE) 3,409 6.9 -30.2°
